Regional Weather Roundup
Issued by NWS Charleston, SC

Current Version | Previous Version | Graphics & Text | Print | Product List | Glossary On
Versions: 1 2 3 4 5 6 7 8 9 10 11 12 13 14 15 16 17 18 19 20 21 22 23 24 25 26 27 28 29 30 31 32 33 34 35 36 37 38 39 40 41 42 43 44 45 46 47 48 49 50
000
ASUS42 KCHS 271127
RWRCHS

REGIONAL WEATHER ROUNDUP
NATIONAL WEATHER SERVICE CHARLESTON SC
700 AM EDT MON APR 27 2015

NOTE: "FAIR" INDICATES FEW OR NO CLOUDS BELOW 12,000 FEET WITH NO
SIGNIFICANT WEATHER AND/OR OBSTRUCTIONS TO VISIBILITY.

NOT ALL STATIONS ARE QUALITY CONTROLLED BY THE NATIONAL
WEATHER SERVICE. USE DATA WITH CAUTION...ESPECIALLY
DEWPOINT OBSERVATIONS.

SCZ027-030-031-034>040-042>050-271200-
...SOUTHEAST SOUTH CAROLINA...

CITY           SKY/WX    TMP DP  RH WIND       PRES   REMARKS
N CHARLESTON   PTCLDY    52  49  89 N8        29.79R
WATERFRONT PRK   N/A     54 N/A N/A N13         N/A
MOUNT PLEASANT PTSUNNY   54  50  87 MISG      29.80R
PINOPOLIS      NOT AVBL
MONCKS CORNER  PTSUNNY   54  48  82 CALM      29.80R
SUMMERVILLE    FAIR      52  52 100 CALM      29.82R
BEAUFORT MCAS  MOCLDY    56  51  84 N12       29.80R
BEAUFORT ARPT  CLOUDY    57  54  88 CALM      29.80R
HILTON HEAD IS CLOUDY    59  54  82 N8        29.80R
WALTERBORO     CLOUDY    54  50  87 N3        29.83R
ALLENDALE      PTSUNNY   52  52 100 CALM      29.82R

...SOUTHERN MIDLANDS AND PEE DEE...

CITY           SKY/WX    TMP DP  RH WIND       PRES   REMARKS
GEORGETOWN     NOT AVBL
KINGSTREE      NOT AVBL
ORANGEBURG     MOCLDY    52  48  86 NE3       29.81R
BARNWELL       FAIR      52  50  93 CALM      29.83R
AIKEN          CLOUDY    50  46  87 CALM      29.85R
MANNING        FAIR      50  36  57 N3        29.81R
COLUMBIA       MOCLDY    53  47  79 CALM      29.81R
SUMTER         PTCLDY    51  48  89 NW6       29.79R
FLORENCE       CLEAR     48  46  93 NW3       29.80R
MYRTLE BEACH   CLOUDY    52  46  82 N12       29.79R
N MYRTLE BEACH CLOUDY    50  48  93 N5        29.77R

$$

GAZ063-065-086>088-099>101-113>116-118-119-134>141-150-271200-
...SOUTHEAST GEORGIA...

CITY           SKY/WX    TMP DP  RH WIND       PRES   REMARKS
SAVANNAH ARPT  CLOUDY    59  54  83 N12       29.79R
HUNTER AAF     CLOUDY    61  59  92 N9        29.76R
FORT STEWART   CLOUDY    61  58  91 N6        29.77R
STATESBORO       N/A     55  51  88 NE6       29.82R
SYLVANIA       MOSUNNY   53  52  96 NE3       29.83R
CLAXTON        CLOUDY    59  55  88 N7        29.82R

...CSRA...CENTRAL AND FAR SOUTHEAST GEORGIA...

CITY           SKY/WX    TMP DP  RH WIND       PRES   REMARKS
THOMSON        MOCLDY    54  54 100 CALM      29.87S
AUGUSTA-BUSH   MOCLDY    53  49  86 CALM      29.82R
AUGUSTA-DANIEL CLOUDY    55  49  80 N6        29.83R
SWAINSBORO     NOT AVBL
VIDALIA        CLOUDY    59  55  88 NE6       29.82R
EASTMAN          N/A     57  57 100 NE6       29.84R
HAZLEHURST     CLOUDY    62  59  91 N5        29.79R
ALMA           CLOUDY    63  60  90 N6        29.78R
WAYCROSS       CLOUDY    68  64  89 NE5       29.77R
JESUP          CLOUDY    66  63  88 NE3       29.79R
BAXLEY         CLOUDY    63  61  94 N6        29.79R
BRUNSWICK      CLOUDY    66  63  88 NE6       29.77R
SAINT SIMONS   CLOUDY    67  63  87 NE9       29.75R

$$

SCZ027-028-034-036>038-045-046-048>050-GAZ119-141-271200-
...LAKE AND SUPPLEMENTAL COASTAL OBSERVATIONS...

STATION/POSITION TIME  TEMP    WIND        PRES    WAVE   SWELL
                       AIR SEA DIR/SP/G            HT/PER HT/PER/DIR
                 (UTC) (F)     (DEG/KT/KT) (MB)    (FT/S) (FT/S/D)
UPR LAKE MARION  NOT AVBL
WINYAH BAY       1000   52     350/  5     1006.0
LAKE MURRAY      1000   53      CALM  /  3 1008.8R
ACE BASIN NERRS  NOT AVBL
FORT PULASKI     1100   60 70  360/  9/ 12 1009.0R
SAPELO ISLAND    1000   67      40/  7     1006.0S

$$

ANZ835-935-AMZ111-154-330-350-352-354-370-450-454-472-271200-
...C-MAN AND BUOY OBSERVATIONS...

STATION/POSITION TIME  TEMP    WIND        PRES    WAVE   SWELL
                       AIR SEA DIR/SP/G            HT/PER HT/PER/DIR
                 (UTC) (F)     (DEG/KT/KT) (MB)    (FT/S) (FT/S/D)
BUOY 41004       1050   62 71  360/ 14/ 16 1006.7R   5/ 6   2/10
BUOY 41008       1050   66 70   40/ 14/ 16 1007.4R   4/ 6
FOLLY BEACH CMAN 1100   54     350/ 10/ 12 1009.0R
CAPERS NEARSHORE 1008   56      10/ 14/ 19 1007.2R
FRIPP NEARSHORE  1000   59      20/ 12/ 14 1007.1R


STATION/POSITION TIME  TEMP    WIND        PRES    WAVE   SWELL
                       AIR SEA DIR/SP/G            HT/PER HT/PER/DIR
                 (UTC) (F)     (DEG/KT/KT) (MB)    (FT/S) (FT/S/D)
5E ST. MARYS GA  1021      70                N/A     1/13
FRYING PAN BUOY  1050   60 71   20/ 14/ 17 1006.8R   4/ 6   2/160/ 7
BUOY 41025       1050   59 75   10/ 17/ 23 1005.7R   6/ 9   5/ 60/ 9
CAPE LOOKOUT NC  1100   53     340/ 13/ 15 1006.7R
BUOY 41002       1050   67 70   10/  8/ 10 1004.2R   6/ 8   7/260/ 8
BUOY 41010       1020   80 79  280/ 17/ 19 1005.2R
ST AUGUSTINE FL  1100   74 68  260/ 10/ 12 1007.8R


$$


USA.gov is the U.S. government's official web portal to all federal, state and local government web resources and services.